Weather History for KERI - July, 2013

Change the Weather History Date:

Thursday, July 4, 2013

  Actual Average Record
Temperature  
Mean Temperature 76 °F 71 °F  
Max Temperature 82 °F 80 °F 99 °F (1990)
Min Temperature 70 °F 63 °F 47 °F (1968)
Degree Days  
Heating Degree Days 0 0  
Month to date heating degree days 0 2  
Since 1 June heating degree days 68 63  
Since 1 July heating degree days 0 2  
Cooling Degree Days 11 7  
Month to date cooling degree days 28 26  
Year to date cooling degree days 231 188  
Since 1 June cooling degree days 146 149  
Growing Degree Days 26 (Base 50)    
Moisture  
Dew Point 68 °F    
Average Humidity 82    
Maximum Humidity 97    
Minimum Humidity 67    
Precipitation  
Precipitation 0.53 in 0.10 in 1.65 in (1991)
Month to date precipitation 0.98 0.44  
Year to date precipitation 25.49 19.26  
Snow  
Snow 0.00 in 0.00 in - ()
Month to date snowfall 0.0 0.0  
Since 1 June snowfall 0.0 0.0  
Since 1 July snowfall 0.0 0.0  
Snow Depth 0.00 in    
Sea Level Pressure  
Sea Level Pressure 30.15 in    
Wind  
Wind Speed 6 mph (South)    
Max Wind Speed 15 mph    
Max Gust Speed 21 mph    
Visibility 8 miles    
Events Rain    
T = Trace of Precipitation, MM = Missing Value Source: NWS Daily Summary

Daily Weather History Graph

Daily Weather History Graph

Search for Another Location

Airport or City:

Trip Planner

Search our weather history database for the weather conditions in past years. The results will help you decide how hot, cold, wet, or windy it might be!

Date:

Astronomy

Jul. 04, 2013 Rise Set
Actual Time 5:50 AM EDT 8:59 PM EDT
Civil Twilight 5:16 AM EDT 9:33 PM EDT
Nautical Twilight 4:32 AM EDT 10:17 PM EDT
Astronomical Twilight 3:39 AM EDT 11:09 PM EDT
Moon 3:07 AM EDT 6:01 PM EDT
Length of Visible Light 16h 17m
Length of Day
15h 09m
Waning Crescent, 11% of the Moon is Illuminated
Jul 4
Waning Crescent
Jul 8
New
Jul 15
First Quarter
Jul 22
Full
Jul 29
Last Quarter

Hourly Weather History & Observations

Time (EDT) Temp. Heat Index Dew Point Humidity Pressure Visibility Wind Dir Wind Speed Gust Speed Precip Events Conditions
12:51 AM 71.1 °F - 68.0 °F 90% 30.12 in 10.0 mi South 5.8 mph - N/A   Clear
1:51 AM 72.0 °F - 68.0 °F 87% 30.12 in 10.0 mi South 9.2 mph - 0.00 in Rain Light Rain
2:51 AM 71.1 °F - 66.9 °F 87% 30.11 in 10.0 mi South 6.9 mph - 0.00 in   Partly Cloudy
3:51 AM 71.1 °F - 66.0 °F 84% 30.12 in 10.0 mi South 8.1 mph - N/A   Clear
4:51 AM 71.1 °F - 66.0 °F 84% 30.12 in 10.0 mi South 8.1 mph - N/A   Overcast
5:51 AM 72.0 °F - 66.9 °F 84% 30.14 in 9.0 mi SSW 8.1 mph - 0.00 in Rain Light Rain
6:09 AM 71.6 °F - 66.2 °F 83% 30.17 in 3.0 mi SSW 10.4 mph - 0.03 in Rain Rain
6:20 AM 69.8 °F - 68.0 °F 94% 30.17 in 1.8 mi SSW 10.4 mph - 0.10 in Rain Heavy Rain
6:51 AM 70.0 °F - 68.0 °F 93% 30.17 in 1.0 mi SSW 4.6 mph - 0.33 in Rain Heavy Rain
7:07 AM 69.8 °F - 68.0 °F 94% 30.18 in 2.5 mi South 4.6 mph - 0.07 in Rain Rain
7:18 AM 69.8 °F - 68.0 °F 94% 30.18 in 1.2 mi South 4.6 mph - 0.13 in Rain Heavy Rain
7:32 AM 69.8 °F - 66.2 °F 88% 30.19 in 2.0 mi SSW 4.6 mph - 0.19 in Rain Light Rain
7:41 AM 69.8 °F - 66.2 °F 88% 30.19 in 4.0 mi South 5.8 mph - 0.20 in Rain Light Rain
7:51 AM 70.0 °F - 66.9 °F 90% 30.18 in 4.0 mi South 5.8 mph - 0.20 in Rain Light Rain
8:51 AM 71.1 °F - 68.0 °F 90% 30.17 in 10.0 mi SE 4.6 mph - 0.00 in   Mostly Cloudy
9:51 AM 75.0 °F - 70.0 °F 84% 30.17 in 10.0 mi South 5.8 mph - N/A   Mostly Cloudy
10:51 AM 75.9 °F - 69.1 °F 79% 30.17 in 10.0 mi South 10.4 mph - N/A   Mostly Cloudy
11:51 AM 77.0 °F - 69.1 °F 76% 30.16 in 10.0 mi South 10.4 mph - N/A   Clear
12:51 PM 79.0 °F - 68.0 °F 69% 30.16 in 10.0 mi South 11.5 mph - N/A   Partly Cloudy
1:51 PM 81.0 °F 83.8 °F 68.0 °F 65% 30.15 in 10.0 mi SSW 9.2 mph - N/A   Mostly Cloudy
2:51 PM 79.0 °F - 68.0 °F 69% 30.15 in 10.0 mi SSW 10.4 mph - 0.00 in Rain Light Rain
3:51 PM 75.9 °F - 69.1 °F 79% 30.13 in 10.0 mi NW 6.9 mph - 0.00 in   Scattered Clouds
4:51 PM 75.9 °F - 68.0 °F 76% 30.13 in 10.0 mi WNW 3.5 mph - 0.00 in   Mostly Cloudy
5:51 PM 78.1 °F - 69.1 °F 74% 30.13 in 10.0 mi Calm Calm - N/A   Scattered Clouds
6:51 PM 75.9 °F - 69.1 °F 79% 30.13 in 10.0 mi WNW 4.6 mph - N/A   Clear
7:51 PM 75.0 °F - 68.0 °F 79% 30.13 in 10.0 mi Calm Calm - N/A   Overcast
8:51 PM 75.0 °F - 69.1 °F 82% 30.12 in 10.0 mi SSE 3.5 mph - N/A   Scattered Clouds
9:51 PM 73.9 °F - 66.9 °F 79% 30.12 in 10.0 mi South 4.6 mph - N/A   Clear
10:51 PM 73.9 °F - 66.0 °F 76% 30.13 in 10.0 mi South 3.5 mph - N/A   Overcast
11:51 PM 73.9 °F - 66.0 °F 76% 30.13 in 10.0 mi SSW 3.5 mph - N/A   Overcast